TimeCDT,TemperatureF,Dew PointF,Humidity,Sea Level PressureIn,VisibilityMPH,Wind Direction,Wind SpeedMPH,Gust SpeedMPH,PrecipitationIn,Events,Conditions,WindDirDegrees,DateUTC
12:53 AM,55.9,51.1,84,30.01,10.0,Calm,Calm,-,N/A,,Clear,0,2013-05-08 05:53:00
1:53 AM,55.0,51.1,86,30.01,10.0,Calm,Calm,-,N/A,,Clear,0,2013-05-08 06:53:00
2:53 AM,54.0,51.1,90,30.01,10.0,ESE,4.6,-,N/A,,Clear,120,2013-05-08 07:53:00
3:53 AM,55.0,51.1,86,30.00,10.0,Calm,Calm,-,N/A,,Clear,0,2013-05-08 08:53:00
4:53 AM,55.0,51.1,86,29.99,10.0,SSE,6.9,-,N/A,,Clear,150,2013-05-08 09:53:00
5:53 AM,55.9,51.1,84,29.99,10.0,Calm,Calm,-,N/A,,Clear,0,2013-05-08 10:53:00
6:53 AM,59.0,52.0,78,30.01,10.0,Calm,Calm,-,N/A,,Clear,0,2013-05-08 11:53:00
7:53 AM,57.9,54.0,87,30.03,10.0,ESE,3.5,-,N/A,,Mostly Cloudy,120,2013-05-08 12:53:00
8:53 AM,66.9,55.0,66,30.04,10.0,SSE,5.8,-,N/A,,Overcast,150,2013-05-08 13:53:00
9:53 AM,70.0,54.0,57,30.05,10.0,SE,4.6,-,N/A,,Partly Cloudy,140,2013-05-08 14:53:00
10:53 AM,73.9,53.1,48,30.06,10.0,South,8.1,-,N/A,,Scattered Clouds,180,2013-05-08 15:53:00
11:53 AM,75.9,53.1,45,30.05,10.0,SSE,11.5,-,N/A,,Clear,150,2013-05-08 16:53:00
12:53 PM,79.0,54.0,42,30.03,10.0,SE,8.1,17.3,N/A,,Clear,130,2013-05-08 17:53:00
1:53 PM,75.0,48.9,40,30.04,10.0,SE,5.8,-,N/A,,Overcast,140,2013-05-08 18:53:00
2:53 PM,72.0,55.9,57,30.03,10.0,East,6.9,-,0.01,,Overcast,80,2013-05-08 19:53:00
3:53 PM,78.1,53.1,42,29.98,10.0,SSE,8.1,-,N/A,,Clear,150,2013-05-08 20:53:00
4:53 PM,79.0,52.0,39,29.95,10.0,SSE,10.4,-,N/A,,Clear,150,2013-05-08 21:53:00
5:53 PM,79.0,52.0,39,29.94,10.0,SSE,12.7,-,N/A,,Clear,160,2013-05-08 22:53:00
6:53 PM,75.9,53.1,45,29.94,10.0,South,9.2,-,N/A,,Clear,180,2013-05-08 23:53:00
7:53 PM,71.1,54.0,55,29.94,10.0,SSE,8.1,-,N/A,,Clear,160,2013-05-09 00:53:00
8:53 PM,68.0,53.1,59,29.94,10.0,South,3.5,-,N/A,,Clear,170,2013-05-09 01:53:00
9:53 PM,66.0,54.0,65,29.94,10.0,SE,5.8,-,N/A,,Clear,130,2013-05-09 02:53:00
10:53 PM,66.0,54.0,65,29.96,10.0,Calm,Calm,-,N/A,,Clear,0,2013-05-09 03:53:00
11:53 PM,64.0,55.0,73,29.96,10.0,Calm,Calm,-,N/A,,Clear,0,2013-05-09 04:53:00